Location: Branche des Alpilles
(43.6087°N, 4.6976°E)
Time: 10:10:36
(UTC+00:00)

Meteor 1-10 Rocket - Pass Details

Date: 30 November 2020
Orbit: 836 x 910 km, 81.3° (Epoch: 26 January)

Event Time Altitude Azimuth Distance (km) Brightness Sun altitude
Rises 18:21:57 0° 189° (S) 3,432 7.6 -24.0°
Reaches altitude 10° 18:24:23 10° 190° (S) 2,489 6.8 -24.4°
Maximum altitude 18:30:03 87° 280° (W) 856 4.1 -25.5°
Enters shadow 18:32:46 32° 8° (N) 1,418 5.2 -25.9°
